Location: Kaseke
(18.0171°S, 31.0526°E)
Time: 12:46:41
(UTC+00:00)

Cosmos 2082 - Pass Details

Date: 14 July 2020
Orbit: 835 x 854 km, 71.0° (Epoch: 07 August)

Event Time Altitude Azimuth Distance (km) Brightness Sun altitude
Exits shadow 03:45:24 - 203° (SSW) 3,447 6.5 -10.2°
Rises 03:45:25 0° 203° (SSW) 3,436 6.5 -10.2°
Reaches altitude 10° 03:47:55 10° 206° (SSW) 2,494 5.7 -9.6°
Maximum altitude 03:53:33 60° 285° (WNW) 974 3.8 -8.4°
Drops below altitude 10° 03:59:06 10° 4° (N) 2,461 6.5 -7.1°
Sets 04:01:34 0° 7° (N) 3,387 7.2 -6.6°
